Regional Weather Roundup
Issued by NWS Green Bay, WI

Home | Current Version | Previous Version | Text Only | Print | Product List | Glossary On
Versions: 1 2 3 4 5 6 7 8 9 10 11 12 13 14 15 16 17 18 19 20 21 22 23 24 25 26 27 28 29 30 31 32 33 34 35 36 37 38 39 40 41 42 43 44 45 46 47 48 49 50
067
ASUS43 KGRB 230911
RWRGRB

NORTH-CENTRAL AND NORTHEAST WISCONSIN REGIONAL WEATHER ROUNDUP
NATIONAL WEATHER SERVICE GREEN BAY WI
400 AM CDT THU MAR 23 2017

WIZ005-009-010>012-018-019-231000-
NORTH CENTRAL WISCONSIN

CITY           SKY/WX    TMP DP  RH WIND       PRES   REMARKS
IRONWOOD       CLOUDY    31  16  54 S10       30.29F
MANITOWISH WTR CLOUDY    27  16  62 S8        30.29S
ARBOR VITAE    CLOUDY    29  18  62 S9        30.30F
EAGLE RIVER    CLOUDY    25  16  66 S5        30.32S
LAND O LAKES   CLOUDY    27  15  61 S6        30.32F
RHINELANDER    CLOUDY    28  18  66 S7        30.33S
PHILLIPS       FLURRIES  28  18  64 S8        30.29F
ANTIGO         CLOUDY    24  19  83 SE7       30.35F
TOMAHAWK       CLOUDY    27  19  70 S3        30.33F
MERRILL        CLOUDY    27  20  74 S5        30.36R
$$

WIZ013-073-231000-
NORTHEAST WISCONSIN

CITY           SKY/WX    TMP DP  RH WIND       PRES   REMARKS
IRON MOUNTAIN  MOCLDY    23  16  74 S5        30.37F
MARINETTE        N/A    N/A N/A N/A MISG        N/A
OCONTO         CLOUDY    25  19  78 CALM      30.43F
$$

WIZ017-030-035>037-045-231000-
CENTRAL WISCONSIN

CITY           SKY/WX    TMP DP  RH WIND       PRES   REMARKS
MEDFORD        CLOUDY    27  20  75 SE10      30.31F
WAUSAU         CLOUDY    26  19  74 S9        30.35S
MOSINEE        CLOUDY    27  21  80 SE8       30.36S
MARSHFIELD     CLOUDY    28  19  69 S9        30.33F
WISC RAPIDS    CLOUDY    27  20  75 S7        30.38F
STEVENS POINT  CLOUDY    24  18  75 SE5       30.38S
WAUPACA        CLOUDY    28  20  74 SE5       30.41S
SHAWANO        CLOUDY    27  20  76 CALM      30.42F
CLINTONVILLE   CLOUDY    27  21  80 SE5       30.40F
WAUTOMA        CLOUDY    26  20  77 E3        30.40F
$$

WIZ038-039-048-051-231000-
FOX VALLEY

CITY           SKY/WX    TMP DP  RH WIND       PRES   REMARKS
NWS GREEN BAY  CLOUDY    27  22  81 CALM      30.43F
APPLETON       CLOUDY    28  19  69 SE6       30.39F
OSHKOSH        PTCLDY    25  19  78 S6        30.40F
FOND DU LAC    CLOUDY    28  20  71 S8        30.41F
$$

WIZ022-050-052-231000-
EAST CENTRAL WISCONSIN

CITY           SKY/WX    TMP DP  RH WIND       PRES   REMARKS
EPHRAIM        FAIR      27  20  77 S5        30.42S
WASHINGTON ISL FAIR      28  20  71 S5        30.43S
STURGEON BAY   CLOUDY    26  20  77 S3        30.44S
MANITOWOC      CLOUDY    29  22  75 S8        30.44F
SHEBOYGAN      CLOUDY    25  20  81 SW3       30.42F
$$

LMZ563-521-522-541>543-231000-
LAKESHORE

STATION/POSITION TIME  TEMP    WIND        PRES    VSBY  WAVE
                       AIR SEA DIR/SP/G                  HT/PER
                 (UTC) (F)     (DEG/KT/KT) (MB)    (MI)  (FT/S)
SHEBOYGAN LKSHOR 0900   32     160/ 14/ 16 1031.0F
KEWAUNEE LKSHORE 0848   31     180/ 13/ 16 1029.9F
NORTHPORT PIER   0903   29     160/  2/  8 1030.5
SISTER BAY LKSHO 0806   26     170/  5/  7   N/A
CHAMBERS ISLAND  0840   26     160/  2/  4 1030.1S
MENOMINEE LKSHOR 0848   27     210/  5/  8 1029.8R
$$




USA.gov is the U.S. government's official web portal to all federal, state and local government web resources and services.